Regional Weather Roundup
Issued by NWS Cleveland, OH

Home | Current Version | Previous Version | Graphics & Text | Print | Product List | Glossary On
Versions: 1 2 3 4 5 6 7 8 9 10 11 12 13 14 15 16 17 18 19 20 21 22 23 24 25 26 27 28 29 30 31 32 33 34 35 36 37 38 39 40 41 42 43 44 45 46 47 48 49 50
000
ASUS41 KCLE 230200
RWRCLE
OHIO REGIONAL WEATHER ROUNDUP
NATIONAL WEATHER SERVICE WILMINGTON, OH
1000 PM EDT TUE JUL 22 2014

NOTE: "FAIR" INDICATES FEW OR NO CLOUDS BELOW 12,000 FEET WITH NO
SIGNIFICANT WEATHER AND/OR OBSTRUCTIONS TO VISIBILITY.

OHZ001>008-015>018-024>027-034-035-043-044-230300-
   NORTHWEST OHIO

CITY           SKY/WX    TMP DP  RH WIND       PRES   REMARKS
DEFIANCE       FAIR      80  66  62 SW5       29.98F
FINDLAY        FAIR      75  67  76 SW6       30.00R
TOLEDO EXPRESS FAIR      80  66  62 SW6       29.97F
TOLEDO METCALF FAIR      81  65  58 SW9       29.98S
LIMA           FAIR      80  66  62 SW8       30.02R
$$

OHZ009>014-019>023-028>033-038-089-230300-
   NORTHEAST OHIO

CITY           SKY/WX    TMP DP  RH WIND       PRES   REMARKS
CLE-HOPKINS    FAIR      81  65  58 S6        30.01S
CLE-LAKEFRONT  FAIR      84  64  50 S12       29.97S
CUY CO. ARPT   PTCLDY    79  70  73 SW9       30.00F
LORAIN-ELYRIA  FAIR      81  67  62 SW7       30.00S
ASHTABULA      FAIR      74  68  81 SE6       30.01S
AKRON-CANTON   FAIR      78  68  71 S5        30.03F
WOOSTER        NOT AVBL
MANSFIELD      FAIR      75  68  78 S6        30.04S
YOUNGSTOWN     FAIR      78  68  71 S3        30.03S
$$

OHZ042-051>053-060>062-070>072-077>081-230300-
  SOUTHWEST OHIO

CITY           SKY/WX    TMP DP  RH WIND       PRES   REMARKS
CINC-COVINGTON FAIR      78  68  71 CALM      30.05R
CINC-LUNKEN    FAIR      75  70  84 CALM      30.03R
HAMILTON       FAIR      74  70  87 CALM      30.04R
DAYTON         NOT AVBL
WRIGHT-PAT AFB FAIR      77  69  75 SW3       30.04R
DAYTON GENERAL FAIR      79  67  66 CALM      30.04S
WILMINGTON     FAIR      76  71  85 SW3       30.05R
$$

OHZ036-037-039>041-045>050-054>059-063>069-073>076-082>088-230300-
  CENTRAL AND SOUTHEAST OHIO

CITY           SKY/WX    TMP DP  RH WIND       PRES   REMARKS
COLUMBUS       FAIR      84  69  60 S3        30.02S
OSU AIRPORT    FAIR      81  68  64 S3        30.03S
BOLTON FIELD   NOT AVBL
RICKENBACK AFB NOT AVBL
NEWARK         FAIR      74  70  87 CALM      30.03S
MARION         FAIR      76  66  71 SW6       30.02S
LANCASTER      FAIR      74  71  91 CALM      30.04R
ZANESVILLE     FAIR      78  71  79 S3        30.04S
NEW PHILLY     FAIR      75  71  87 SE3       30.04S
$$


USA.gov is the U.S. government's official web portal to all federal, state and local government web resources and services.